Location: Bacea
(45.9500°N, 22.6667°E)
Time: 05:58:56
(UTC+00:00)

Cosmos 1953 - Pass Details

Date: 05 June 2022
Orbit: 533 x 555 km, 82.5° (Epoch: 03 July)

Event Time Altitude Azimuth Distance (km) Brightness Sun altitude
Rises 22:38:56 0° 337° (NNW) 2,709 7.0 -21.4°
Reaches altitude 10° 22:41:28 10° 322° (NW) 1,808 5.6 -21.4°
Maximum altitude 22:44:29 21° 272° (W) 1,241 4.1 -21.3°
Enters shadow 22:44:47 21° 265° (W) 1,247 4.0 -21.3°
